TimeEDT,TemperatureF,Dew PointF,Humidity,Sea Level PressureIn,VisibilityMPH,Wind Direction,Wind SpeedMPH,Gust SpeedMPH,PrecipitationIn,Events,Conditions,WindDirDegrees,DateUTC
12:52 AM,62.1,61.0,96,29.91,10.0,West,3.5,-,N/A,,Clear,260,2013-06-18 04:52:00
1:52 AM,63.0,61.0,93,29.91,10.0,SW,4.6,-,N/A,,Clear,220,2013-06-18 05:52:00
2:52 AM,63.0,62.1,97,29.90,7.0,SW,4.6,-,0.01,,Clear,230,2013-06-18 06:52:00
3:52 AM,63.0,62.1,97,29.90,5.0,SW,4.6,-,N/A,,Clear,220,2013-06-18 07:52:00
4:29 AM,62.6,62.6,100,29.91,3.0,Calm,Calm,-,N/A,,Scattered Clouds,0,2013-06-18 08:29:00
4:35 AM,62.6,62.6,100,29.91,2.5,Calm,Calm,-,N/A,,Mostly Cloudy,0,2013-06-18 08:35:00
4:52 AM,62.1,62.1,100,29.92,2.5,SW,3.5,-,N/A,,Scattered Clouds,230,2013-06-18 08:52:00
5:52 AM,63.0,63.0,100,29.92,2.5,Calm,Calm,-,N/A,,Clear,0,2013-06-18 09:52:00
6:27 AM,64.4,62.6,94,29.92,3.0,SW,3.5,-,N/A,,Clear,220,2013-06-18 10:27:00
6:52 AM,64.9,64.0,97,29.93,5.0,SSW,3.5,-,N/A,,Clear,210,2013-06-18 10:52:00
7:52 AM,66.9,64.9,93,29.94,7.0,South,3.5,-,N/A,,Clear,180,2013-06-18 11:52:00
8:52 AM,73.0,64.9,76,29.95,10.0,SSW,3.5,-,N/A,,Clear,200,2013-06-18 12:52:00
9:52 AM,75.0,62.1,64,29.94,10.0,NE,4.6,-,N/A,,Clear,50,2013-06-18 13:52:00
10:52 AM,75.0,64.0,69,29.94,10.0,East,5.8,-,N/A,,Scattered Clouds,100,2013-06-18 14:52:00
11:52 AM,73.9,63.0,68,29.94,10.0,East,6.9,-,N/A,,Clear,90,2013-06-18 15:52:00
12:52 PM,71.1,62.1,73,29.93,10.0,East,5.8,-,N/A,,Clear,100,2013-06-18 16:52:00
1:52 PM,69.1,62.1,78,29.92,10.0,ESE,4.6,-,N/A,,Clear,120,2013-06-18 17:52:00
2:52 PM,69.1,62.1,78,29.91,10.0,ESE,6.9,-,N/A,,Clear,110,2013-06-18 18:52:00
3:52 PM,68.0,61.0,78,29.90,10.0,East,6.9,-,N/A,,Mostly Cloudy,80,2013-06-18 19:52:00
4:52 PM,66.9,61.0,81,29.91,10.0,NNE,6.9,-,N/A,,Overcast,30,2013-06-18 20:52:00
5:21 PM,66.2,62.6,88,29.91,10.0,NNE,6.9,-,N/A,,Overcast,30,2013-06-18 21:21:00
5:44 PM,64.4,62.6,94,29.91,8.0,NE,5.8,-,0.00,,Overcast,40,2013-06-18 21:44:00
5:52 PM,64.0,62.1,93,29.91,8.0,NE,10.4,16.1,0.00,,Overcast,50,2013-06-18 21:52:00
5:59 PM,64.4,62.6,94,29.91,8.0,NE,5.8,-,N/A,,Overcast,50,2013-06-18 21:59:00
6:50 PM,62.6,60.8,94,29.90,10.0,NNE,9.2,-,N/A,,Overcast,20,2013-06-18 22:50:00
6:52 PM,63.0,60.1,90,29.91,10.0,NNE,9.2,-,N/A,,Overcast,30,2013-06-18 22:52:00
7:07 PM,62.6,60.8,94,29.89,10.0,NE,8.1,-,N/A,,Overcast,40,2013-06-18 23:07:00
7:17 PM,62.6,60.8,94,29.88,10.0,NE,6.9,17.3,N/A,,Mostly Cloudy,40,2013-06-18 23:17:00
7:52 PM,61.0,59.0,93,29.90,10.0,ENE,12.7,-,N/A,,Partly Cloudy,70,2013-06-18 23:52:00
8:47 PM,60.8,60.8,100,29.90,10.0,East,6.9,-,N/A,,Scattered Clouds,90,2013-06-19 00:47:00
8:52 PM,61.0,60.1,97,29.91,10.0,East,8.1,-,N/A,,Mostly Cloudy,90,2013-06-19 00:52:00
9:01 PM,60.8,60.8,100,29.91,10.0,East,6.9,-,N/A,,Mostly Cloudy,90,2013-06-19 01:01:00
9:52 PM,61.0,61.0,100,29.91,6.0,ENE,6.9,-,0.00,Rain,Light Rain,70,2013-06-19 01:52:00
10:30 PM,60.8,60.8,100,29.91,6.0,NE,5.8,-,0.00,Rain,Light Rain,50,2013-06-19 02:30:00
10:43 PM,60.8,60.8,100,29.91,6.0,NE,4.6,-,0.00,Rain,Light Rain,50,2013-06-19 02:43:00
10:52 PM,61.0,61.0,100,29.91,6.0,North,3.5,-,0.00,Rain,Light Rain,10,2013-06-19 02:52:00
11:52 PM,61.0,61.0,100,29.88,6.0,Variable,4.6,-,0.02,Rain,Light Rain,0,2013-06-19 03:52:00